Weather History for KCMX - October, 2011

Change the Weather History Date:

Wednesday, October 12, 2011

  Actual Average Record
Temperature  
Mean Temperature 61 °F -  
Max Temperature 71 °F 51 °F 73 °F (1997)
Min Temperature 53 °F 38 °F 24 °F (1967)
Degree Days  
Heating Degree Days 4    
Growing Degree Days 11 (Base 50)    
Moisture  
Dew Point 56 °F    
Average Humidity 94    
Maximum Humidity 100    
Minimum Humidity 60    
Precipitation  
Precipitation 0.00 in - - ()
Sea Level Pressure  
Sea Level Pressure 29.83 in    
Wind  
Wind Speed 4 mph (SE)    
Max Wind Speed 9 mph    
Max Gust Speed -    
Visibility 4 miles    
Events Fog    
Averages and records for this station are not official NWS values.
T = Trace of Precipitation, MM = Missing Value Source: NWS Daily Summary

Daily Weather History Graph

Daily Weather History Graph

Search for Another Location

Airport or City:

Trip Planner

Search our weather history database for the weather conditions in past years. The results will help you decide how hot, cold, wet, or windy it might be!

Date:

Astronomy

Oct. 12, 2011 Rise Set
Actual Time 8:07 AM EDT 7:12 PM EDT
Civil Twilight 7:36 AM EDT 7:43 PM EDT
Nautical Twilight 7:01 AM EDT 8:18 PM EDT
Astronomical Twilight 6:26 AM EDT 8:53 PM EDT
Moon 7:06 PM EDT (10/12) 8:49 AM EDT (10/12)
Length of Visible Light 12h 06m
Length of Day
11h 04m
Full, 100% of the Moon is Illuminated
Oct 12
Full
Oct 19
Last Quarter
Oct 26
New
Nov 2
First Quarter
Nov 10
Full

Hourly Weather History & Observations

Time (EDT) Temp. Dew Point Humidity Pressure Visibility Wind Dir Wind Speed Gust Speed Precip Events Conditions
12:53 AM 57.9 °F 55.9 °F 93% 29.88 in 9.0 mi South 4.6 mph - N/A   Clear
1:53 AM 57.9 °F 57.0 °F 97% 29.88 in 8.0 mi SSW 8.1 mph - N/A   Clear
2:53 AM 59.0 °F 57.2 °F 94% 29.87 in 7.0 mi SSW 8.1 mph - N/A   Clear
3:43 AM 55.4 °F 55.4 °F 100% 29.87 in 2.5 mi Calm Calm - N/A   Partly Cloudy
3:51 AM 55.4 °F 55.4 °F 100% 29.86 in 1.2 mi SE 3.5 mph - N/A   Partly Cloudy
3:53 AM 55.9 °F 55.0 °F 97% 29.86 in 1.2 mi Calm Calm - N/A   Partly Cloudy
3:58 AM 55.4 °F 55.4 °F 100% 29.86 in 0.8 mi SSE 3.5 mph - N/A   Mist
4:08 AM 53.6 °F 53.6 °F 100% 29.86 in 0.2 mi Calm Calm - N/A Fog Fog
4:25 AM 53.6 °F 53.6 °F 100% 29.86 in 1.0 mi Calm Calm - N/A   Mist
4:39 AM 53.6 °F 53.6 °F 100% 29.86 in 0.2 mi Calm Calm - N/A Fog Fog
4:50 AM 55.4 °F 53.6 °F 94% 29.86 in 0.2 mi Calm Calm - N/A Fog Fog
4:53 AM 55.0 °F 54.0 °F 96% 29.86 in 0.2 mi Calm Calm - N/A Fog Fog
5:06 AM 55.4 °F 55.4 °F 100% 29.86 in 1.2 mi Calm Calm - N/A   Partly Cloudy
5:17 AM 55.4 °F 55.4 °F 100% 29.86 in 0.8 mi SSE 3.5 mph - N/A   Mist
5:26 AM 53.6 °F 53.6 °F 100% 29.86 in 0.2 mi ESE 3.5 mph - N/A Fog Fog
5:53 AM 55.0 °F 55.0 °F 100% 29.87 in 0.2 mi SE 3.5 mph - N/A Fog Fog
6:24 AM 55.4 °F 55.4 °F 100% 29.86 in 0.8 mi South 4.6 mph - N/A   Mist
6:38 AM 55.4 °F 55.4 °F 100% 29.86 in 1.2 mi South 4.6 mph - N/A   Overcast
6:53 AM 55.9 °F 55.9 °F 100% 29.86 in 1.2 mi SSE 3.5 mph - N/A   Overcast
7:19 AM 55.4 °F 55.4 °F 100% 29.86 in 1.8 mi South 3.5 mph - N/A   Scattered Clouds
7:53 AM 55.0 °F 55.0 °F 100% 29.87 in 1.0 mi Calm Calm - N/A   Clear
8:36 AM 53.6 °F 53.6 °F 100% 29.86 in 0.2 mi SE 4.6 mph - N/A Fog Fog
8:46 AM 55.4 °F 55.4 °F 100% 29.87 in 0.2 mi SSE 3.5 mph - N/A Fog Fog
8:53 AM 54.0 °F 54.0 °F 100% 29.88 in 0.2 mi SE 3.5 mph - N/A Fog Fog
9:07 AM 55.4 °F 55.4 °F 100% 29.87 in 0.2 mi East 4.6 mph - N/A Fog Fog
9:53 AM 55.9 °F 55.9 °F 100% 29.86 in 0.2 mi SE 4.6 mph - N/A Fog Fog
10:38 AM 57.2 °F 57.2 °F 100% 29.85 in 0.5 mi SE 5.8 mph - N/A Fog Fog
10:48 AM 57.2 °F 57.2 °F 100% 29.85 in 0.2 mi SE 3.5 mph - N/A Fog Fog
10:53 AM 57.0 °F 57.0 °F 100% 29.85 in 0.2 mi Calm Calm - N/A Fog Fog
11:04 AM 57.2 °F 57.2 °F 100% 29.84 in 1.0 mi SE 4.6 mph - N/A   Mist
11:07 AM 57.2 °F 57.2 °F 100% 29.84 in 3.0 mi SSE 5.8 mph - N/A   Mostly Cloudy
11:17 AM 57.2 °F 57.2 °F 100% 29.84 in 5.0 mi SE 5.8 mph - N/A   Scattered Clouds
11:53 AM 63.0 °F 57.0 °F 81% 29.84 in 8.0 mi SSE 5.8 mph - N/A   Clear
12:53 PM 66.9 °F 57.0 °F 70% 29.82 in 10.0 mi South 6.9 mph - N/A   Clear
1:53 PM 69.8 °F 55.4 °F 60% 29.81 in 10.0 mi Variable 6.9 mph - N/A   Clear
2:53 PM 69.1 °F 55.9 °F 63% 29.78 in 10.0 mi East 9.2 mph - N/A   Partly Cloudy
3:53 PM 66.9 °F 55.9 °F 68% 29.76 in 10.0 mi East 9.2 mph - N/A   Clear
4:53 PM 66.2 °F 57.2 °F 73% 29.75 in 10.0 mi East 9.2 mph - N/A   Clear
5:53 PM 64.9 °F 57.0 °F 75% 29.74 in 10.0 mi East 4.6 mph - N/A   Clear
6:53 PM 61.0 °F 55.9 °F 83% 29.74 in 9.0 mi East 5.8 mph - N/A   Clear
7:53 PM 60.1 °F 55.9 °F 86% 29.74 in 9.0 mi East 6.9 mph - N/A   Scattered Clouds
8:53 PM 57.9 °F 55.9 °F 93% 29.74 in 7.0 mi East 4.6 mph - N/A   Mostly Cloudy
9:53 PM 59.0 °F 57.2 °F 94% 29.72 in 6.0 mi East 6.9 mph - N/A   Overcast
10:53 PM 57.9 °F 57.0 °F 97% 29.71 in 3.0 mi East 6.9 mph - N/A   Clear
11:53 PM 57.9 °F 57.0 °F 97% 29.70 in 4.0 mi East 6.9 mph - N/A   Clear